This is the latest recevied weather packets stored in our database for station/object KN6CRX-10. If no packets are shown the sender has not sent any weather packets the latest 10 day(s).
| Time | Temp. | Humidity | Pressure | Rain* | Wind** | Luminosity | Snow |
|---|---|---|---|---|---|---|---|
| 1788200144 | 24.44° C | 31% | 1020.3 hPa | 0 mm | - | 259 W/m² | - |
| 1788199844 | 23.33° C | 31% | 1020.3 hPa | 0 mm | - | 767 W/m² | - |
| 1788199539 | 23.33° C | 30% | 1020.5 hPa | 0 mm | - | 762 W/m² | - |
| 1788199234 | 23.33° C | 29% | 1020.5 hPa | 0 mm | - | 754 W/m² | - |
| 1788198930 | 23.33° C | 29% | 1020.3 hPa | 0 mm | - | 743 W/m² | - |
| 1788198627 | 22.78° C | 33% | 1020.7 hPa | 0 mm | - | 737 W/m² | - |
| 1788198327 | 21.67° C | 34% | 1020.5 hPa | 0 mm | - | 727 W/m² | - |
| 1788198026 | 21.67° C | 33% | 1020.7 hPa | 0 mm | - | 719 W/m² | - |
| 1788197725 | 21.67° C | 33% | 1020.7 hPa | 0 mm | - | 701 W/m² | - |
| 1788197421 | 21.11° C | 33% | 1020.7 hPa | 0 mm | - | 693 W/m² | - |
| 1788197116 | 21.11° C | 36% | 1020.7 hPa | 0 mm | - | 680 W/m² | - |
| 1788196811 | 20.56° C | 37% | 1020.6 hPa | 0 mm | - | 669 W/m² | - |
| 1788196507 | 21.11° C | 35% | 1020.7 hPa | 0 mm | - | 655 W/m² | - |
| 1788196204 | 20.56° C | 37% | 1020.9 hPa | 0 mm | - | 642 W/m² | - |
| 1788195900 | 20° C | 38% | 1020.9 hPa | 0 mm | - | 628 W/m² | - |
| 1788195597 | 20° C | 39% | 1020.8 hPa | 0 mm | - | 611 W/m² | - |
| 1788195297 | 19.44° C | 38% | 1020.8 hPa | 0 mm | - | 601 W/m² | - |
| 1788194994 | 19.44° C | 39% | 1020.9 hPa | 0 mm | - | 588 W/m² | - |
| 1788194690 | 18.89° C | 40% | 1021 hPa | 0 mm | - | 570 W/m² | - |
| 1788194385 | 18.89° C | 41% | 1020.8 hPa | 0 mm | - | 557 W/m² | - |
| 1788194080 | 18.33° C | 43% | 1021 hPa | 0 mm | - | 543 W/m² | - |
| 1788193778 | 18.33° C | 42% | 1020.9 hPa | 0 mm | - | 398 W/m² | - |
| 1788193474 | 18.89° C | 40% | 1021.2 hPa | 0 mm | - | 511 W/m² | - |
| 1788193172 | 17.78° C | 41% | 1021 hPa | 0 mm | - | 496 W/m² | - |
| 1788192869 | 17.78° C | 42% | 1021 hPa | 0 mm | - | 365 W/m² | - |
* Rain latest hour (hover to see other rain measurements)
** Current wind speed in m/s (hover to see current wind gust speed)